[[{"header":{"parameterUnit":"m.s-1","parameterCategory":1,"la1":30.2991,"la2":30.254,"lo1":-89.0895,"lo2":-89.0444,"dy":0.0017,"dx":0.0017,"nx":28,"ny":28,"refTime":"2023-09-15T09:00:00:Z","depth":0,"parameterNumber":2,"parameterNumberName":"U-component_of_WINDS"},"data":[0,0,0,0,0,0,0,0,0,0,0,0,0,0,0,0,0,0,0,0,0,0,0,0,0,0,0,0,0,0,0,0,0,0,0,0,0,0,0,0,0,0,0,0,0,0,0,0,0,0,0,0,0,0,0,0,0,0,-3.3634,-3.3633,0,-3.3599,-3.3599,-3.3598,-3.3471,-3.3468,-3.3465,-3.3462,-3.3429,-3.3431,-3.3433,0,0,0,0,0,0,0,0,0,0,0,0,0,-3.3592,-3.3594,-3.3634,-3.3633,-3.3633,-3.3599,-3.3599,-3.3598,-3.3472,-3.3468,-3.3464,-3.3461,-3.3429,-3.3431,-3.3433,0,0,0,0,0,0,0,0,0,0,0,0,0,-3.359,-3.3594,-3.3634,-3.3566,-3.3559,-3.3599,-3.3599,-3.3598,-3.3472,-3.3468,-3.3464,-3.3459,-3.3428,-3.3431,-3.3433,-3.3538,0,0,-3.3442,-3.3443,0,0,0,0,0,0,0,0,-3.359,-3.3591,-3.3576,-3.357,-3.3563,-3.3535,-3.3572,-3.3578,-3.3473,-3.3505,-3.3462,-3.3457,-3.3468,-3.3467,-3.347,-3.3536,-3.3535,-3.3442,-3.3444,-3.3445,-3.3446,0,0,0,0,0,0,0,-3.359,-3.3592,-3.362,-3.3576,-3.3568,-3.3537,-3.3532,-3.3573,-3.3512,-3.3502,-3.3493,-3.349,-3.3464,-3.3468,-3.3469,-3.3534,-3.3442,-3.3444,-3.3446,-3.3447,-3.3683,-3.3688,0,0,0,0,0,0,-3.36,-3.3593,-3.3621,-3.3619,-3.3566,-3.3542,-3.3536,-3.3548,-3.3511,-3.3501,-3.3494,-3.3485,-3.3466,-3.3466,-3.3467,-3.3586,-3.3445,-3.3447,-3.3449,-3.3679,-3.3684,-3.3689,0,0,0,0,0,0,-3.3599,-3.3604,-3.3623,-3.3604,-3.3604,-3.3547,-3.3562,-3.355,-3.3554,-3.3505,-3.3494,-3.351,-3.3462,-3.3463,-3.3521,-3.3583,-3.3449,-3.3451,-3.3673,-3.3681,-3.3687,-3.3825,0,0,0,0,0,0,-3.3599,-3.3604,-3.3643,-3.3605,-3.3605,-3.3677,-3.3566,-3.3553,-3.3559,-3.3546,-3.3516,-3.3507,-3.3459,-3.3517,-3.3524,-3.3584,-3.3453,-3.3667,-3.3677,-3.3685,-3.3815,-3.3836,-3.3854,0,0,0,0,0,-3.3598,-3.3683,-3.3645,-3.3649,-3.3652,-3.368,-3.368,-3.3622,-3.3565,-3.3603,-3.3571,-3.3508,-3.3576,-3.3524,-3.353,-3.3593,-3.3663,-3.3674,-3.3684,-3.3806,-3.3832,-3.3853,0,0,0,0,0,0,-3.373,-3.3677,-3.3634,-3.371,-3.3701,-3.3659,-3.3705,-3.3652,-3.3659,-3.3647,-3.3575,-3.357,-3.3637,-3.3621,-3.3565,-3.3692,-3.3609,-3.3621,-3.3699,-3.3724,-3.3743,-3.3745,-3.3456,0,0,0,0,0,-3.3768,-3.3795,-3.3748,-3.3819,-3.3817,-3.3762,-3.3773,-3.3729,-3.3716,-3.3712,-3.3684,-3.3675,-3.3694,-3.3708,-3.3723,-3.3812,-3.3804,-3.3858,-3.3878,-3.3894,-3.3905,-3.3951,-3.3974,-3.3724,-3.3724,-3.3723,0,0,-3.3847,-3.3821,-3.3842,-3.3845,-3.3832,-3.3862,-3.376,-3.3796,-3.3817,-3.3717,-3.3769,-3.375,-3.3735,-3.3809,-3.384,-3.3797,-3.3973,-3.3908,-3.3921,-3.3923,-3.3964,-3.3988,-3.4009,-3.3731,-3.3729,-3.3728,0,0,-3.4005,-3.3989,-3.4046,-3.4036,-3.4018,-3.3981,-3.3995,-3.3962,-3.3944,-3.3995,-3.3921,-3.3947,-3.3981,-3.3973,-3.3974,-3.4131,-3.4073,-3.4138,-3.424,-3.4285,-3.4305,-3.4322,-3.4377,-3.4398,-3.4149,-3.415,-3.415,0,-3.4105,-3.4146,-3.4082,-3.4123,-3.4126,-3.4037,-3.4095,-3.4089,-3.4077,-3.4082,-3.4035,-3.4076,-3.406,-3.413,-3.4168,-3.4173,-3.4186,-3.414,-3.4307,-3.4324,-3.4339,-3.4391,-3.4412,-3.4158,-3.4157,-3.4156,-3.4155,0,-3.4269,-3.4299,-3.4348,-3.4338,-3.4347,-3.4397,-3.4342,-3.4359,-3.4315,-3.4284,-3.4338,-3.4316,-3.4324,-3.4338,-3.4296,-3.4403,-3.4377,-3.432,-3.4235,-3.4372,-3.4419,-3.4438,-3.4169,-3.4166,-3.4164,-3.4162,0,0,-3.4508,-3.4463,-3.4482,-3.4476,-3.445,-3.4473,-3.4519,-3.4526,-3.4542,-3.4538,-3.4575,-3.4607,-3.4553,-3.4555,-3.4511,-3.4551,-3.4676,-3.4489,-3.4487,-3.4523,-3.4792,-3.4834,-3.4858,-3.4638,-3.4642,-3.4645,-3.4793,0,-3.4657,-3.4731,-3.4676,-3.476,-3.4787,-3.4704,-3.4744,-3.4733,-3.4706,-3.4725,-3.4695,-3.4719,-3.4647,-3.4647,-3.4683,-3.4653,-3.4729,-3.4642,-3.4671,-3.4673,-3.4676,-3.4883,-3.4927,-3.5068,-3.4811,-3.4814,-3.4816,0,-3.484,-3.4843,-3.493,-3.4899,-3.4908,-3.4945,-3.4947,-3.4967,-3.4954,-3.4931,-3.4933,-3.488,-3.4923,-3.4842,-3.4901,-3.4843,-3.4852,-3.484,-3.4844,-3.4842,-3.4752,-3.4886,-3.5111,-3.5132,-3.4845,-3.4843,-3.4841,0,-3.5004,-3.503,-3.5085,-3.5083,-3.5048,-3.5076,-3.5063,-3.5045,-3.5054,-3.5057,-3.5062,-3.5071,-3.5075,-3.5084,-3.5034,-3.498,-3.51,-3.5014,-3.5082,-3.5084,-3.511,-3.5108,-3.5338,-3.5119,-3.5119,-3.5118,-3.5118,0,-3.5175,-3.5231,-3.5158,-3.5192,-3.5252,-3.5189,-3.5252,-3.523,-3.5215,-3.5244,-3.5174,-3.5202,-3.5136,-3.5158,-3.512,-3.5174,-3.5177,-3.516,-3.5149,-3.5166,-3.5168,-3.5169,-3.5158,-3.5124,-3.5123,-3.5122,-3.5121,0,-3.5367,-3.532,-3.5374,-3.5338,-3.533,-3.5376,-3.5344,-3.5375,-3.5343,-3.5381,-3.5386,-3.5337,-3.5359,-3.5311,-3.5327,-3.5302,-3.5379,-3.5353,-3.5383,-3.5374,-3.5445,-3.5438,-3.5682,-3.571,-3.5475,-3.5478,-3.548,0,-3.5478,-3.5519,-3.5487,-3.55,-3.5491,-3.5515,-3.5522,-3.5463,-3.5474,-3.5463,-3.5495,-3.5511,-3.5521,-3.5561,-3.5527,-3.554,-3.5513,-3.5597,-3.5514,-3.5529,-3.5512,-3.551,-3.5513,-3.5614,-3.5617,-3.5619,-3.5621,0,-3.5681,-3.5655,-3.5669,-3.5676,-3.5687,-3.5689,-3.5686,-3.5702,-3.5639,-3.5656,-3.5677,-3.5685,-3.5701,-3.5719,-3.5723,-3.5711,-3.5656,-3.5648,-3.5664,-3.568,-3.5695,-3.5687,-3.5428,-3.5642,-3.564,-3.5638,-3.5637,-3.5636,-3.5834,-3.5866,-3.5849,-3.5866,-3.5858,-3.5858,-3.5884,-3.5856,-3.5873,-3.588,-3.5845,-3.5875,-3.5861,-3.5861,-3.5855,-3.5878,-3.584,-3.5864,-3.5869,-3.5875,-3.5886,-3.5693,-3.5879,-3.5878,-3.5878,-3.5877,-3.5876,0,-3.6031,-3.6016,-3.6033,-3.6031,-3.6046,-3.5993,-3.5987,-3.6003,-3.603,-3.6021,-3.6032,-3.6058,-3.6075,-3.6043,-3.6055,-3.6079,-3.6055,-3.6084,-3.6081,-3.6079,-3.592,-3.5904,-3.6104,-3.6104,-3.6104,-3.6104,-3.6104,-3.6104,-3.6135,-3.6187,-3.616,-3.6208,-3.6192,-3.622,-3.6221,-3.622,-3.6213,-3.6244,-3.6258,-3.6237,-3.6219,-3.623,-3.6243,-3.6233,-3.624,-3.6279,-3.6261,-3.6113,-3.609,-3.6069,-3.6053,-3.6281,-3.6282,-3.6417,-3.6418,-3.6419]},{"header":{"parameterUnit":"m.s-1","parameterCategory":1,"la1":30.2991,"la2":30.254,"lo1":-89.0895,"lo2":-89.0444,"dy":0.0017,"dx":0.0017,"nx":28,"ny":28,"refTime":"2023-09-15T09:00:00:Z","depth":0,"parameterNumber":3,"parameterNumberName":"V-component_of_WINDS"},"data":[0,0,0,0,0,0,0,0,0,0,0,0,0,0,0,0,0,0,0,0,0,0,0,0,0,0,0,0,0,0,0,0,0,0,0,0,0,0,0,0,0,0,0,0,0,0,0,0,0,0,0,0,0,0,0,0,0,0,-2.3775,-2.3776,0,-2.3822,-2.3823,-2.3823,-2.3808,-2.3807,-2.3806,-2.3805,-2.3851,-2.3853,-2.3855,0,0,0,0,0,0,0,0,0,0,0,0,0,-2.367,-2.3672,-2.3775,-2.3776,-2.3776,-2.3822,-2.3823,-2.3823,-2.3808,-2.3807,-2.3806,-2.3804,-2.385,-2.3853,-2.3856,0,0,0,0,0,0,0,0,0,0,0,0,0,-2.3716,-2.3672,-2.3775,-2.3774,-2.3775,-2.3822,-2.3823,-2.3823,-2.3808,-2.3807,-2.3805,-2.3804,-2.385,-2.3853,-2.3856,-2.3906,0,0,-2.3866,-2.3867,0,0,0,0,0,0,0,0,-2.3713,-2.372,-2.3774,-2.3775,-2.3775,-2.3808,-2.3802,-2.3851,-2.3809,-2.3796,-2.3805,-2.3803,-2.3838,-2.3842,-2.3854,-2.3908,-2.391,-2.3866,-2.3868,-2.3869,-2.387,0,0,0,0,0,0,0,-2.371,-2.3718,-2.3794,-2.3775,-2.3775,-2.3771,-2.3776,-2.3811,-2.3824,-2.3797,-2.3796,-2.3801,-2.3838,-2.3851,-2.3855,-2.3911,-2.3866,-2.3869,-2.3871,-2.3872,-2.4006,-2.4008,0,0,0,0,0,0,-2.3707,-2.3715,-2.3792,-2.3795,-2.374,-2.3774,-2.3779,-2.3799,-2.3824,-2.3826,-2.3803,-2.38,-2.3846,-2.3851,-2.3856,-2.3915,-2.3869,-2.3872,-2.3874,-2.4004,-2.4006,-2.4008,0,0,0,0,0,0,-2.3705,-2.3714,-2.379,-2.3755,-2.3764,-2.3777,-2.3799,-2.38,-2.3813,-2.3829,-2.3831,-2.3814,-2.3845,-2.3852,-2.3893,-2.3916,-2.3874,-2.3877,-2.4003,-2.4005,-2.4007,-2.4034,0,0,0,0,0,0,-2.3702,-2.3713,-2.3733,-2.3755,-2.3766,-2.3828,-2.3801,-2.3802,-2.3819,-2.3817,-2.384,-2.3842,-2.3844,-2.3889,-2.3897,-2.392,-2.3879,-2.4001,-2.4004,-2.4007,-2.4031,-2.4037,-2.4042,0,0,0,0,0,-2.3698,-2.3739,-2.3734,-2.3744,-2.3792,-2.3829,-2.3835,-2.3837,-2.3821,-2.3841,-2.385,-2.3841,-2.3913,-2.3893,-2.3902,-2.3927,-2.3999,-2.4003,-2.4006,-2.4029,-2.4036,-2.4042,0,0,0,0,0,0,-2.3719,-2.3742,-2.3737,-2.3787,-2.3806,-2.3826,-2.3851,-2.3845,-2.3869,-2.3866,-2.3868,-2.3873,-2.3915,-2.3925,-2.3903,-2.3975,-2.3953,-2.3959,-2.3967,-2.3974,-2.398,-2.3976,-2.3882,0,0,0,0,0,-2.373,-2.3759,-2.3777,-2.3819,-2.3829,-2.3838,-2.3855,-2.3855,-2.3875,-2.3883,-2.3895,-2.3914,-2.3941,-2.3958,-2.3984,-2.4033,-2.4036,-2.4054,-2.4059,-2.4064,-2.4068,-2.4093,-2.41,-2.402,-2.402,-2.402,0,0,-2.3751,-2.3768,-2.3786,-2.3823,-2.3838,-2.3867,-2.3845,-2.3877,-2.3898,-2.3887,-2.3927,-2.3937,-2.3958,-2.4003,-2.4023,-2.4012,-2.4091,-2.4068,-2.4072,-2.4074,-2.4097,-2.4105,-2.4112,-2.4023,-2.4022,-2.4022,0,0,-2.3806,-2.3822,-2.3857,-2.3873,-2.3895,-2.3901,-2.391,-2.3931,-2.3937,-2.3977,-2.3968,-2.3993,-2.4039,-2.4054,-2.4068,-2.4126,-2.4117,-2.4134,-2.4162,-2.4186,-2.4192,-2.4198,-2.4217,-2.4224,-2.4138,-2.4139,-2.4139,0,-2.383,-2.3874,-2.3876,-2.3909,-2.3924,-2.3916,-2.3951,-2.3965,-2.3995,-2.4006,-2.3994,-2.405,-2.4064,-2.4111,-2.4125,-2.4137,-2.4146,-2.4131,-2.4191,-2.4197,-2.4202,-2.422,-2.4228,-2.414,-2.414,-2.414,-2.414,0,-2.3901,-2.3932,-2.3958,-2.3987,-2.4006,-2.4039,-2.4045,-2.4064,-2.4062,-2.4069,-2.4108,-2.4124,-2.4152,-2.4163,-2.4162,-2.421,-2.4202,-2.4191,-2.4169,-2.4212,-2.4228,-2.4236,-2.4143,-2.4142,-2.4142,-2.4141,0,0,-2.3971,-2.3999,-2.4009,-2.4021,-2.4045,-2.4068,-2.41,-2.4127,-2.4142,-2.4163,-2.4189,-2.4228,-2.4217,-2.4232,-2.4232,-2.4253,-2.4296,-2.4239,-2.4239,-2.4248,-2.4347,-2.4355,-2.4363,-2.4291,-2.4292,-2.4293,-2.4345,0,-2.4025,-2.4083,-2.4085,-2.4137,-2.4164,-2.4156,-2.4184,-2.4201,-2.4207,-2.423,-2.4238,-2.4264,-2.4249,-2.4258,-2.4278,-2.4286,-2.4316,-2.4283,-2.4314,-2.4315,-2.4307,-2.4372,-2.4381,-2.4428,-2.4352,-2.4353,-2.4354,0,-2.4098,-2.412,-2.4175,-2.4193,-2.4204,-2.4229,-2.4253,-2.4276,-2.4294,-2.4298,-2.4314,-2.4311,-2.4342,-2.432,-2.4362,-2.434,-2.4352,-2.4358,-2.436,-2.4362,-2.4336,-2.4374,-2.4444,-2.445,-2.4364,-2.4364,-2.4363,0,-2.414,-2.4184,-2.4222,-2.4233,-2.4256,-2.4273,-2.4283,-2.43,-2.4316,-2.4337,-2.4346,-2.4371,-2.4383,-2.4402,-2.4404,-2.4388,-2.4446,-2.4424,-2.4448,-2.4448,-2.446,-2.4459,-2.4532,-2.4471,-2.4471,-2.4471,-2.4471,0,-2.4201,-2.4234,-2.4241,-2.4264,-2.4301,-2.4303,-2.4338,-2.4347,-2.4362,-2.4385,-2.438,-2.4402,-2.4404,-2.4427,-2.4429,-2.4463,-2.4469,-2.4471,-2.4471,-2.4471,-2.4471,-2.4479,-2.4475,-2.4473,-2.4472,-2.4472,-2.4471,0,-2.4254,-2.4261,-2.4301,-2.4319,-2.4324,-2.435,-2.4365,-2.4386,-2.4392,-2.4422,-2.4429,-2.4438,-2.4464,-2.4468,-2.4499,-2.45,-2.454,-2.4537,-2.4534,-2.4533,-2.4556,-2.4554,-2.4635,-2.4645,-2.4579,-2.458,-2.4581,0,-2.4292,-2.4317,-2.4338,-2.4353,-2.4364,-2.4389,-2.4405,-2.4407,-2.4423,-2.4445,-2.4463,-2.4489,-2.4509,-2.4551,-2.4559,-2.4582,-2.4579,-2.4606,-2.4582,-2.4581,-2.4577,-2.4575,-2.4577,-2.461,-2.4611,-2.4611,-2.4612,0,-2.4357,-2.4359,-2.4382,-2.4406,-2.4424,-2.4443,-2.4461,-2.4474,-2.4478,-2.4496,-2.4523,-2.4539,-2.4569,-2.4594,-2.4616,-2.4626,-2.4619,-2.4619,-2.4626,-2.4625,-2.4622,-2.4622,-2.4545,-2.4617,-2.4617,-2.4616,-2.4616,-2.4616,-2.4403,-2.4424,-2.4441,-2.4467,-2.448,-2.4496,-2.4517,-2.4525,-2.4547,-2.4572,-2.4572,-2.4601,-2.4617,-2.4646,-2.4657,-2.4678,-2.4669,-2.4679,-2.4681,-2.4684,-2.4685,-2.4619,-2.4682,-2.4682,-2.4682,-2.4682,-2.4682,0,-2.4466,-2.4477,-2.45,-2.4525,-2.4544,-2.4537,-2.4555,-2.4572,-2.4597,-2.4613,-2.4633,-2.4662,-2.4685,-2.4695,-2.4718,-2.4733,-2.473,-2.4739,-2.4737,-2.4739,-2.4692,-2.4684,-2.474,-2.474,-2.474,-2.474,-2.474,-2.474,-2.4502,-2.4537,-2.454,-2.4581,-2.4591,-2.4619,-2.463,-2.4644,-2.4656,-2.469,-2.4709,-2.4715,-2.4728,-2.4752,-2.4772,-2.4774,-2.4782,-2.4792,-2.4792,-2.4748,-2.4742,-2.4737,-2.4728,-2.4794,-2.4794,-2.4837,-2.4837,-2.4837]}]]